EDT,Max TemperatureF,Mean TemperatureF,Min TemperatureF,Max Dew PointF,MeanDew PointF,Min DewpointF,Max Humidity, Mean Humidity, Min Humidity, Max Sea Level PressureIn, Mean Sea Level PressureIn, Min Sea Level PressureIn, Max VisibilityMiles, Mean VisibilityMiles, Min VisibilityMiles, Max Wind SpeedMPH, Mean Wind SpeedMPH, Max Gust SpeedMPH,PrecipitationIn, CloudCover, Events, WindDirDegrees
2013-3-1,59,54,48,36,33,31,59,48,36,30.01,29.97,29.91,10,10,10,14,9,,0.00,7,,305
2013-3-2,53,46,39,34,29,24,82,55,32,30.04,30.00,29.93,10,10,10,25,10,31,0.00,2,,284
2013-3-3,46,40,35,30,27,23,82,59,42,30.14,30.05,30.00,10,10,10,16,9,23,0.00,3,,287
2013-3-4,61,48,34,41,28,19,76,50,26,30.24,30.16,30.12,10,10,10,15,7,,0.00,1,,217
2013-3-5,75,59,43,56,43,35,78,56,24,30.18,30.06,29.91,10,10,10,17,9,29,0.00,4,,205
2013-3-6,66,56,45,61,37,24,90,55,26,30.14,30.00,29.88,10,10,5,22,15,37,0.05,2,Rain,291
2013-3-7,61,50,39,43,34,29,83,58,34,30.25,30.19,30.15,10,10,10,15,9,22,0.00,2,,12
2013-3-8,66,54,42,48,42,34,89,67,32,30.25,30.21,30.16,10,9,7,13,6,,0.00,0,,12
2013-3-9,66,57,48,49,46,41,93,71,40,30.28,30.24,30.19,10,10,8,15,6,23,0.00,4,,39
2013-3-10,73,64,55,56,53,50,90,71,44,30.23,30.17,30.14,10,10,10,17,8,,0.00,2,,70
2013-3-11,75,65,57,58,56,54,93,71,50,30.14,30.01,29.91,10,10,10,14,8,21,0.00,5,Rain,150
2013-3-12,68,62,55,65,59,45,100,84,50,30.03,29.91,29.85,10,8,2,13,9,,0.10,7,Rain,210
2013-3-13,70,58,48,44,33,24,67,41,18,30.19,30.11,30.03,10,10,10,17,10,23,0.00,1,,319
2013-3-14,61,52,45,39,29,22,76,43,27,30.31,30.24,30.18,10,10,10,20,10,23,0.00,0,,354
2013-3-15,72,56,41,47,34,22,76,48,25,30.29,30.21,30.12,10,10,9,10,6,,0.00,0,,201
2013-3-16,80,64,48,48,44,38,86,53,27,30.17,30.09,30.00,10,10,10,20,9,24,0.00,0,,244
2013-3-17,75,64,52,55,46,40,81,55,29,30.13,30.06,29.99,10,10,10,12,8,,0.00,4,Rain,198
2013-3-18,79,70,62,62,58,54,87,71,48,30.06,29.98,29.87,10,10,9,14,6,,0.00,7,Rain,182
2013-3-19,79,70,62,63,58,54,90,69,42,30.05,29.97,29.90,10,10,6,24,10,34,0.10,5,Rain,311
2013-3-20,66,60,53,60,52,45,100,73,52,30.03,29.95,29.85,10,10,5,20,8,,0.13,6,Rain-Thunderstorm,24
2013-3-21,68,56,45,51,30,19,97,45,17,29.96,29.91,29.87,10,10,10,16,9,21,0.00,3,,293
2013-3-22,64,56,48,48,37,30,72,48,31,30.06,30.01,29.95,10,10,9,14,7,16,0.00,5,,47
2013-3-23,66,62,57,65,61,49,100,95,74,30.00,29.88,29.80,10,5,0,20,7,37,2.66,7,Fog-Rain-Thunderstorm,68
2013-3-24,84,72,60,71,65,60,100,83,44,29.82,29.64,29.53,10,8,1,22,12,29,0.34,5,Rain-Thunderstorm,211
2013-3-25,66,58,50,60,32,20,84,41,18,30.04,29.85,29.64,10,10,10,24,14,31,0.00,0,,288
2013-3-26,55,48,41,28,24,20,50,39,28,30.26,30.14,30.06,10,10,10,17,11,30,0.00,1,,305
2013-3-27,60,49,39,31,27,25,62,44,28,30.32,30.27,30.22,10,10,10,20,10,17,0.00,0,,327
2013-3-28,66,56,45,43,32,22,69,45,18,30.31,30.27,30.21,10,10,10,12,7,20,0.00,0,,346
2013-3-29,72,58,45,46,38,29,83,53,22,30.35,30.28,30.21,10,10,10,10,5,,0.00,0,,95
2013-3-30,77,63,51,54,41,32,74,47,21,30.27,30.20,30.11,10,10,10,15,5,20,0.00,3,,213
2013-3-31,81,69,57,56,49,40,72,50,34,30.13,30.06,29.98,10,10,10,20,11,25,0.00,4,,208